H1 CPF 2 NER 2022 3 21 9 080 01 glonass140 H2 1903001 9140 44299 2022 3 21 0 0 0 2022 3 24 23 45 0 900 1 1 0 0 0 1 H9 10 0 59659 0.00000 0 7392417.741 23759311.950 5583338.445 10 0 59659 900.00000 0 7135080.361 22913100.375 8634208.869 10 0 59659 1800.00000 0 6638787.267 21769100.824 11517275.887 10 0 59659 2700.00000 0 5875302.678 20378080.047 14176592.005 10 0 59659 3600.00000 0 4827544.418 18797510.582 16560599.826 10 0 59659 4500.00000 0 3490558.179 17089160.783 18623125.907 10 0 59659 5400.00000 0 1871981.511 15316528.230 20324266.653 10 0 59659 6300.00000 0 -8022.017 13542224.148 21631150.087 10 0 59659 7200.00000 0 -2117355.754 11825418.014 22518559.885 10 0 59659 8100.00000 0 -4413085.538 10219448.248 22969410.967 10 0 59659 9000.00000 0 -6842992.763 8769697.533 22975068.726 10 0 59659 9900.00000 0 -9347520.979 7511819.907 22535506.819 10 0 59659 10800.00000 0 -11862036.208 6470391.924 21659301.325 10 0 59659 11700.00000 0 -14319308.324 5658042.480 20363461.837 10 0 59659 12600.00000 0 -16652111.812 5075096.184 18673102.852 10 0 59659 13500.00000 0 -18795839.336 4709743.902 16620961.492 10 0 59659 14400.00000 0 -20691020.929 4538732.436 14246770.266 10 0 59659 15300.00000 0 -22285645.146 4528543.921 11596496.153 10 0 59659 16200.00000 0 -23537186.533 4637015.202 8721459.751 10 0 59659 17100.00000 0 -24414255.517 4815329.136 5677350.493 10 0 59659 18000.00000 0 -24897802.098 5010294.198 2523156.176 10 0 59659 18900.00000 0 -24981823.059 5166816.492 -679973.267 10 0 59659 19800.00000 0 -24673542.782 5230459.906 -3869906.267 10 0 59659 20700.00000 0 -23993059.595 5149986.266 -6984731.718 10 0 59659 21600.00000 0 -22972471.898 4879767.718 -9963959.490 10 0 59659 22500.00000 0 -21654520.018 4381968.687 -12749695.955 10 0 59659 23400.00000 0 -20090800.180 3628404.190 -15287771.392 10 0 59659 24300.00000 0 -18339624.970 2601994.604 -17528797.078 10 0 59659 25200.00000 0 -16463619.590 1297753.815 -19429131.206 10 0 59659 26100.00000 0 -14527154.431 -276732.801 -20951734.362 10 0 59659 27000.00000 0 -12593721.398 -2101362.751 -22066897.626 10 0 59659 27900.00000 0 -10723363.835 -4144103.019 -22752828.708 10 0 59659 28800.00000 0 -8970267.752 -6362086.222 -22996084.276 10 0 59659 29700.00000 0 -7380615.287 -8703172.244 -22791839.607 10 0 59659 30600.00000 0 -5990790.309 -11107911.553 -22143989.818 10 0 59659 31500.00000 0 -4826011.374 -13511829.165 -21065080.146 10 0 59659 32400.00000 0 -3899449.162 -15847934.586 -19576066.131 10 0 59659 33300.00000 0 -3211865.072 -18049353.167 -17705907.862 10 0 59659 34200.00000 0 -2751785.637 -20051968.813 -15491005.877 10 0 59659 35100.00000 0 -2496204.588 -21796967.262 -12974489.492 10 0 59659 36000.00000 0 -2411781.888 -23233173.070 -10205371.516 10 0 59659 36900.00000 0 -2456487.906 -24319081.912 -7237586.179 10 0 59659 37800.00000 0 -2581621.720 -25024502.721 -4128929.672 10 0 59659 38700.00000 0 -2734116.635 -25331740.671 -939924.738 10 0 59659 39600.00000 0 -2859033.696 -25236271.594 2267367.377 10 0 59659 40500.00000 0 -2902136.086 -24746880.111 5430563.455 10 0 59659 41400.00000 0 -2812434.015 -23885256.658 8488178.549 10 0 59659 42300.00000 0 -2544591.292 -22685071.536 11380825.262 10 0 59659 43200.00000 0 -2061090.983 -21190566.233 14052368.212 10 0 59659 44100.00000 0 -1334068.132 -19454722.434 16451011.036 10 0 59659 45000.00000 0 -346732.044 -17537086.651 18530295.027 10 0 59659 45900.00000 0 905681.819 -15501342.359 20249990.649 10 0 59659 46800.00000 0 2415470.327 -13412731.492 21576865.669 10 0 59659 47700.00000 0 4162550.000 -11335432.919 22485316.174 10 0 59659 48600.00000 0 6115069.648 -9330006.571 22957849.614 10 0 59659 49500.00000 0 8230523.108 -7451008.611 22985411.846 10 0 59659 50400.00000 0 10457316.198 -5744875.556 22567552.931 10 0 59659 51300.00000 0 12736723.547 -4248163.713 21712429.366 10 0 59659 52200.00000 0 15005154.990 -2986215.424 20436643.162 10 0 59659 53100.00000 0 17196638.470 -1972306.037 18764921.007 10 0 59659 54000.00000 0 19245417.605 -1207305.567 16729639.395 10 0 59659 54900.00000 0 21088557.133 -679867.944 14370204.293 10 0 59659 55800.00000 0 22668448.895 -367139.007 11732296.519 10 0 59659 56700.00000 0 23935114.879 -235952.979 8866996.427 10 0 59659 57600.00000 0 24848211.844 -244466.895 5829803.827 10 0 59659 58500.00000 0 25378654.044 -344164.219 2679571.248 10 0 59659 59400.00000 0 25509786.115 -482143.290 -522629.562 10 0 59659 60300.00000 0 25238056.653 -603594.136 -3714686.497 10 0 59659 61200.00000 0 24573163.582 -654359.071 -6834648.703 10 0 59659 62100.00000 0 23537664.433 -583468.643 -9821927.734 10 0 59659 63000.00000 0 22166066.929 -345545.231 -12618474.885 10 0 59659 63900.00000 0 20503437.124 97028.067 -15169911.529 10 0 59659 64800.00000 0 18603582.584 772266.041 -17426590.215 10 0 59659 65700.00000 0 16526885.992 1697146.661 -19344565.582 10 0 59659 66600.00000 0 14337879.364 2876645.211 -20886455.726 10 0 59659 67500.00000 0 12102659.978 4303279.882 -22022176.956 10 0 59659 68400.00000 0 9886255.806 5957189.918 -22729537.226 10 0 59659 69300.00000 0 7750050.526 7806744.953 -22994676.238 10 0 59659 70200.00000 0 5749375.649 9809661.843 -22812343.227 10 0 59659 71100.00000 0 3931370.336 11914583.783 -22186006.501 10 0 59659 72000.00000 0 2333198.385 14063056.795 -21127792.081 10 0 59659 72900.00000 0 980696.738 16191821.750 -19658252.103 10 0 59659 73800.00000 0 -112488.247 18235326.454 -17805967.010 10 0 59659 74700.00000 0 -945241.067 20128352.672 -15606988.932 10 0 59659 75600.00000 0 -1528780.489 21808647.790 -13104136.914 10 0 59659 76500.00000 0 -1885935.471 23219450.376 -10346157.744 10 0 59659 77400.00000 0 -2049925.433 24311803.018 -7386769.140 10 0 59659 78300.00000 0 -2062697.943 25046554.866 -4283604.519 10 0 59659 79200.00000 0 -1972895.775 25395969.309 -1097080.763 10 0 59659 80100.00000 0 -1833541.078 25344869.096 2110787.854 10 0 59659 81000.00000 0 -1699536.407 24891270.960 5277605.360 10 0 59659 81900.00000 0 -1625089.965 24046483.608 8341814.739 10 0 59659 82800.00000 0 -1661175.335 22834665.787 11243898.770 10 0 59659 83700.00000 0 -1853134.169 21291864.058 13927537.179 10 0 59659 84600.00000 0 -2238523.797 19464571.708 16340697.428 10 0 59659 85500.00000 0 -2845300.901 17407870.282 18436638.054 10 0 59660 0.00000 0 -3690417.764 15183232.458 20174805.659 10 0 59660 900.00000 0 -4778890.567 12856077.281 21521609.952 10 0 59660 1800.00000 0 -6103377.435 10493182.792 22451060.770 10 0 59660 2700.00000 0 -7644285.372 8160059.360 22945259.204 10 0 59660 3600.00000 0 -9370400.611 5918394.994 22994732.220 10 0 59660 4500.00000 0 -11240016.747 3823676.398 22598606.424 10 0 59660 5400.00000 0 -13202514.134 1923083.158 21764618.313 10 0 59660 6300.00000 0 -15200325.626 253740.741 20508961.329 10 0 59660 7200.00000 0 -17171207.778 -1158596.808 18855972.769 10 0 59660 8100.00000 0 -19050724.165 -2300381.397 16837666.355 10 0 59660 9000.00000 0 -20774838.565 -3170589.413 14493118.860 10 0 59660 9900.00000 0 -22282511.009 -3780512.067 11867721.854 10 0 59660 10800.00000 0 -23518189.311 -4153027.284 9012312.046 10 0 59660 11700.00000 0 -24434092.664 -4321384.194 5982196.001 10 0 59660 12600.00000 0 -24992192.064 -4327551.545 2836087.276 10 0 59660 13500.00000 0 -25165804.611 -4220199.639 -365024.261 10 0 59660 14400.00000 0 -24940734.442 -4052400.811 -3559049.579 10 0 59660 15300.00000 0 -24315911.700 -3879145.505 -6684001.520 10 0 59660 16200.00000 0 -23303501.775 -3754778.946 -9679196.566 10 0 59660 17100.00000 0 -21928479.053 -3730467.072 -12486433.924 10 0 59660 18000.00000 0 -20227681.890 -3851799.359 -15051128.754 10 0 59660 18900.00000 0 -18248387.240 -4156630.687 -17323377.203 10 0 59660 19800.00000 0 -16046463.559 -4673254.542 -19258932.245 10 0 59660 20700.00000 0 -13684178.432 -5418986.012 -20820070.868 10 0 59660 21600.00000 0 -11227751.857 -6399215.927 -21976335.431 10 0 59660 22500.00000 0 -8744756.848 -7606977.731 -22705134.348 10 0 59660 23400.00000 0 -6301475.611 -9023047.075 -22992189.982 10 0 59660 24300.00000 0 -3960321.374 -10616571.667 -22831824.587 10 0 59660 25200.00000 0 -1777433.290 -12346206.549 -22227078.224 10 0 59660 26100.00000 0 199455.253 -14161708.390 -21189655.815 10 0 59660 27000.00000 0 1932786.086 -16005922.966 -19739703.864 10 0 59660 27900.00000 0 3396509.863 -17817083.006 -17905420.648 10 0 59660 28800.00000 0 4576928.410 -19531320.201 -15722507.156 10 0 59660 29700.00000 0 5473011.314 -21085285.766 -13233469.273 10 0 59660 30600.00000 0 6096174.508 -22418769.074 -10486784.789 10 0 59660 31500.00000 0 6469531.423 -23477203.596 -7535951.898 10 0 59660 32400.00000 0 6626649.880 -24213954.138 -4438438.265 10 0 59660 33300.00000 0 6609868.958 -24592288.450 -1254551.996 10 0 59660 34200.00000 0 6468248.759 -24586949.786 1953742.384 10 0 59660 35100.00000 0 6255241.693 -24185264.053 5124038.785 10 0 59660 36000.00000 0 6026185.529 -23387735.094 8194710.551 10 0 59660 36900.00000 0 5835725.767 -22208103.515 11106112.848 10 0 59660 37800.00000 0 5735277.563 -20672867.300 13801742.476 10 0 59660 38700.00000 0 5770635.269 -18820285.125 16229332.398 10 0 59660 39600.00000 0 5979830.914 -16698905.046 18341859.784 10 0 59660 40500.00000 0 6391332.003 -14365680.768 20098448.694 10 0 59660 41400.00000 0 7022654.305 -11883754.615 21465150.851 10 0 59660 42300.00000 0 7879447.589 -9319999.725 22415590.531 10 0 59660 43200.00000 0 8955092.312 -6742423.389 22931462.452 10 0 59660 44100.00000 0 10230823.948 -4217538.637 23002874.347 10 0 59660 45000.00000 0 11676379.689 -1807812.083 22628528.708 10 0 59660 45900.00000 0 13251140.763 430707.652 21815741.118 10 0 59660 46800.00000 0 14905723.239 2450484.246 20580295.287 10 0 59660 47700.00000 0 16583951.707 4214225.585 18946137.765 10 0 59660 48600.00000 0 18225134.489 5696183.105 16944917.955 10 0 59660 49500.00000 0 19766546.563 6882966.181 14615381.723 10 0 59660 50400.00000 0 21146017.514 7773838.926 12002629.513 10 0 59660 51300.00000 0 22304517.338 8380488.159 9157252.333 10 0 59660 52200.00000 0 23188632.614 8726272.987 6134361.289 10 0 59660 53100.00000 0 23752829.682 8844987.926 2992528.598 10 0 59660 54000.00000 0 23961409.989 8779191.770 -207340.241 10 0 59660 54900.00000 0 23790075.155 8578172.633 -3403181.819 10 0 59660 55800.00000 0 23227035.322 8295634.909 -6532975.219 10 0 59660 56700.00000 0 22273613.179 7987205.840 -9535944.310 10 0 59660 57600.00000 0 20944316.994 7707867.122 -12353738.521 10 0 59660 58500.00000 0 19266378.171 7509420.403 -14931568.898 10 0 59660 59400.00000 0 17278771.263 7438094.313 -17219277.061 10 0 59660 60300.00000 0 15030756.044 7532394.929 -19172315.967 10 0 59660 61200.00000 0 12580001.446 7821291.434 -20752622.946 10 0 59660 62100.00000 0 9990368.689 8322814.791 -21929367.667 10 0 59660 63000.00000 0 7329445.298 9043129.906 -22679560.104 10 0 59660 63900.00000 0 4665932.325 9976121.849 -22988506.200 10 0 59660 64800.00000 0 2066993.280 11103515.045 -22850101.923 10 0 59660 65700.00000 0 -404325.045 12395521.855 -22266959.511 10 0 59660 66600.00000 0 -2691492.409 13811994.465 -21250362.891 10 0 59660 67500.00000 0 -4746615.772 15304032.656 -19820052.641 10 0 59660 68400.00000 0 -6532192.451 16815980.515 -18003844.174 10 0 59660 69300.00000 0 -8022422.855 18287728.378 -15837086.223 10 0 59660 70200.00000 0 -9204028.468 19657223.116 -13361969.986 10 0 59660 71100.00000 0 -10076541.710 20863080.726 -10626702.372 10 0 59660 72000.00000 0 -10652056.561 21847190.527 -7684559.837 10 0 59660 72900.00000 0 -10954451.990 22557200.490 -4592841.815 10 0 59660 73800.00000 0 -11018122.591 22948778.131 -1411744.944 10 0 59660 74700.00000 0 -10886271.836 22987550.967 1796818.839 10 0 59660 75600.00000 0 -10608842.017 22650644.250 4970436.261 10 0 59660 76500.00000 0 -10240170.219 21927750.964 8047414.006 10 0 59660 77400.00000 0 -9836471.126 20821689.142 10967982.589 10 0 59660 78300.00000 0 -9453254.413 19348423.388 13675458.807 10 0 59660 79200.00000 0 -9142786.859 17536550.233 16117343.933 10 0 59660 80100.00000 0 -8951706.815 15426269.541 18246336.438 10 0 59660 81000.00000 0 -8918891.765 13067885.558 20021240.189 10 0 59660 81900.00000 0 -9073668.549 10519900.530 21407751.497 10 0 59660 82800.00000 0 -9434440.995 7846780.512 22379110.888 10 0 59660 83700.00000 0 -10007792.006 5116486.017 22916608.364 10 0 59660 84600.00000 0 -10788097.179 2397869.333 23009933.690 10 0 59660 85500.00000 0 -11757665.674 -241954.438 22657366.076 10 0 59661 0.00000 0 -12887402.203 -2740154.909 21865800.595 10 0 59661 900.00000 0 -14137963.188 -5040549.825 20650610.861 10 0 59661 1800.00000 0 -15461357.674 -7095684.810 19035351.930 10 0 59661 2700.00000 0 -16802928.787 -8868549.395 17051307.519 10 0 59661 3600.00000 0 -18103632.341 -10333856.350 14736890.666 10 0 59661 4500.00000 0 -19302518.789 -11478833.842 12136908.270 10 0 59661 5400.00000 0 -20339315.430 -12303498.399 9301702.795 10 0 59661 6300.00000 0 -21157001.438 -12820398.155 6286186.708 10 0 59661 7200.00000 0 -21704268.122 -13053837.676 3148787.451 10 0 59661 8100.00000 0 -21937761.283 -13038617.218 -49677.434 10 0 59661 9000.00000 0 -21824011.149 -12818339.544 -3247173.832 10 0 59661 9900.00000 0 -21340968.076 -12443355.557 -6381650.752 10 0 59661 10800.00000 0 -20479078.434 -11968435.332 -9392243.081 10 0 59661 11700.00000 0 -19241854.039 -11450262.837 -12220453.988 10 0 59661 12600.00000 0 -17645909.687 -10944860.247 -14811293.730 10 0 59661 13500.00000 0 -15720465.498 -10505050.922 -17114352.444 10 0 59661 14400.00000 0 -13506333.226 -10178068.684 -19084785.739 10 0 59661 15300.00000 0 -11054427.405 -10003414.997 -20684193.470 10 0 59661 16200.00000 0 -8423862.144 -10011055.374 -21881374.237 10 0 59661 17100.00000 0 -5679711.795 -10220032.083 -22652940.561 10 0 59661 18000.00000 0 -2890528.050 -10637552.772 -22983782.298 10 0 59661 18900.00000 0 -125716.205 -11258594.574 -22867368.830 10 0 59661 19800.00000 0 2547120.590 -12066041.512 -22305883.681 10 0 59661 20700.00000 0 5064758.664 -13031350.435 -21310188.369 10 0 59661 21600.00000 0 7370745.576 -14115718.271 -19899615.694 10 0 59661 22500.00000 0 9417506.726 -15271702.042 -18101595.964 10 0 59661 23400.00000 0 11168079.023 -16445223.638 -15951123.091 10 0 59661 24300.00000 0 12597399.584 -17577874.794 -13490070.744 10 0 59661 25200.00000 0 13693096.141 -18609424.727 -10766371.867 10 0 59661 26100.00000 0 14455746.872 -19480423.953 -7833077.916 10 0 59661 27000.00000 0 14898600.018 -20134793.571 -4747316.709 10 0 59661 27900.00000 0 15046766.626 -20522289.798 -1569169.993 10 0 59661 28800.00000 0 14935922.155 -20600738.778 1639506.275 10 0 59661 29700.00000 0 14610573.698 -20337946.630 4816294.881 10 0 59661 30600.00000 0 14121967.867 -19713203.610 7899438.878 10 0 59661 31500.00000 0 13525729.500 -18718318.753 10829046.848 10 0 59661 32400.00000 0 12879332.483 -17358141.460 13548257.933 10 0 59661 33300.00000 0 12239510.613 -15650548.302 16004343.674 10 0 59661 34200.00000 0 11659718.443 -13625896.023 18149725.367 10 0 59661 35100.00000 0 11187749.380 -11325963.971 19942887.791 10 0 59661 36000.00000 0 10863611.090 -8802430.416 21349172.526 10 0 59661 36900.00000 0 10717746.997 -6114946.374 22341436.632 10 0 59661 37800.00000 0 10769677.739 -3328886.820 22900565.303 10 0 59661 38700.00000 0 11027118.701 -512872.063 23015829.903 10 0 59661 39600.00000 0 11485609.766 2263838.767 22685085.611 10 0 59661 40500.00000 0 12128672.136 4933975.425 21914805.806 10 0 59661 41400.00000 0 12928485.338 7434798.138 20719953.043 10 0 59661 42300.00000 0 13847056.036 9710449.349 19123689.343 10 0 59661 43200.00000 0 14837830.044 11714019.904 17156931.117 10 0 59661 44100.00000 0 15847680.643 13409245.563 14857756.793 10 0 59661 45000.00000 0 16819190.637 14771764.710 12270677.787 10 0 59661 45900.00000 0 17693133.265 15789886.148 9445785.929 10 0 59661 46800.00000 0 18411048.610 16464835.875 6437792.803 10 0 59661 47700.00000 0 18917807.781 16810473.088 3304978.706 10 0 59661 48600.00000 0 19164057.315 16852487.711 108070.758 10 0 59661 49500.00000 0 19108440.821 16627113.228 -3090928.731 10 0 59661 50400.00000 0 18719503.791 16179408.931 -6229941.193 10 0 59661 51300.00000 0 17977200.483 15561183.763 -9248014.934 10 0 59661 52200.00000 0 16873938.084 14828649.195 -12086509.118 10 0 59661 53100.00000 0 15415112.670 14039900.055 -14690235.271 10 0 59661 54000.00000 0 13619112.613 13252329.674 -17008533.887 10 0 59661 54900.00000 0 11516787.353 12520088.655 -18996264.858 10 0 59661 55800.00000 0 9150401.952 11891694.851 -20614691.993 10 0 59661 56700.00000 0 6572119.405 11407895.906 -21832244.091 10 0 59661 57600.00000 0 3842072.523 11099875.141 -22625137.316 10 0 59661 58500.00000 0 1026104.650 10987877.186 -22977846.353 10 0 59661 59400.00000 0 -1806727.650 11080312.078 -22883414.701 10 0 59661 60300.00000 0 -4586786.606 11373376.360 -22343597.594 10 0 59661 61200.00000 0 -7246510.706 11851207.902 -21368834.222 10 0 59661 62100.00000 0 -9722987.198 12486568.489 -19978049.298 10 0 59661 63000.00000 0 -11960332.567 13242025.804 -18198287.305 10 0 59661 63900.00000 0 -13911781.679 14071585.111 -16064186.212 10 0 59661 64800.00000 0 -15541398.599 14922701.624 -13617300.674 10 0 59661 65700.00000 0 -16825337.849 15738588.189 -10905287.884 10 0 59661 66600.00000 0 -17752603.828 16460720.077 -7980972.273 10 0 59661 67500.00000 0 -18325277.492 17031430.136 -4901307.840 10 0 59661 68400.00000 0 -18558202.008 17396483.549 -1726259.111 10 0 59661 69300.00000 0 -18478142.128 17507522.327 1482376.359 10 0 59661 70200.00000 0 -18122454.494 17324275.245 4662179.923 10 0 59661 71100.00000 0 -17537326.821 16816439.095 7751333.550 10 0 59661 72000.00000 0 -16775662.068 15965151.360 10689826.507 10 0 59661 72900.00000 0 -15894698.536 14763991.950 13420622.907 10 0 59661 73800.00000 0 -14953467.582 13219471.791 15890767.185 10 0 59661 74700.00000 0 -14010197.022 11350987.932 18052406.038 10 0 59661 75600.00000 0 -13119769.959 9190247.219 19863707.630 10 0 59661 76500.00000 0 -12331345.825 6780182.762 21289661.134 10 0 59661 77400.00000 0 -11686243.060 4173408.475 22302742.255 10 0 59661 78300.00000 0 -11216171.385 1430275.764 22883433.232 10 0 59661 79200.00000 0 -10941886.664 -1383387.470 23020588.572 10 0 59661 80100.00000 0 -10872323.546 -4198762.449 22711640.609 10 0 59661 81000.00000 0 -11004241.133 -6946647.956 21962641.885 10 0 59661 81900.00000 0 -11322395.639 -9560084.970 20788144.096 10 0 59661 82800.00000 0 -11800232.302 -11976890.247 19210916.121 10 0 59661 83700.00000 0 -12401067.358 -14141995.541 17261506.430 10 0 59661 84600.00000 0 -13079710.756 -16009496.989 14977657.705 10 0 59661 85500.00000 0 -13784461.941 -17544330.906 12403584.273 10 0 59662 0.00000 0 -14459395.520 -18723507.388 9589125.549 10 0 59662 900.00000 0 -15046841.738 -19536851.788 6588789.300 10 0 59662 1800.00000 0 -15489957.111 -19987222.135 3460706.173 10 0 59662 2700.00000 0 -15735278.519 -20090195.888 265509.824 10 0 59662 3600.00000 0 -15735152.289 -19873237.522 -2934832.502 10 0 59662 4500.00000 0 -15449935.870 -19374382.506 -6078218.099 10 0 59662 5400.00000 0 -14849878.480 -18640492.692 -9103612.273 10 0 59662 6300.00000 0 -13916600.264 -17725156.303 -11952233.820 10 0 59662 7200.00000 0 -12644106.150 -16686320.741 -14568699.159 10 0 59662 8100.00000 0 -11039289.939 -15583757.905 -16902102.655 10 0 59662 9000.00000 0 -9121905.398 -14476468.757 -18907011.755 10 0 59662 9900.00000 0 -6924003.591 -13420136.707 -20544357.142 10 0 59662 10800.00000 0 -4488857.954 -12464737.340 -21782200.252 10 0 59662 11700.00000 0 -1869420.209 -11652405.504 -22596362.782 10 0 59662 12600.00000 0 873629.925 -11015650.093 -22970905.523 10 0 59662 13500.00000 0 3674161.242 -10575992.116 -22898446.743 10 0 59662 14400.00000 0 6463099.853 -10343083.914 -22380313.443 10 0 59662 15300.00000 0 9171066.377 -10314347.031 -21426521.983 10 0 59662 16200.00000 0 11731032.003 -10475144.314 -20055587.975 10 0 59662 17100.00000 0 14080882.947 -10799479.127 -18294168.586 10 0 59662 18000.00000 0 16165786.207 -11251192.134 -16176543.904 10 0 59662 18900.00000 0 17940257.929 -11785604.817 -13743947.195 10 0 59662 19800.00000 0 19369847.954 -12351539.758 -11043757.104 10 0 59662 20700.00000 0 20432370.258 -12893631.436 -8128567.866 10 0 59662 21600.00000 0 21118628.271 -13354828.830 -5055156.174 10 0 59662 22500.00000 0 21432605.521 -13678982.757 -1883365.619 10 0 59662 23400.00000 0 21391114.769 -13813407.279 1325068.454 10 0 59662 24300.00000 0 21022921.945 -13711305.691 4507729.740 10 0 59662 25200.00000 0 20367383.482 -13333957.469 7602742.736 10 0 59662 26100.00000 0 19472656.236 -12652573.072 10549980.698 10 0 59662 27000.00000 0 18393557.133 -11649737.789 13292235.642 10 0 59662 27900.00000 0 17189164.105 -10320383.517 15776327.369 10 0 59662 28800.00000 0 15920260.415 -8672247.558 17954129.987 10 0 59662 29700.00000 0 14646730.444 -6725799.243 19783496.583 10 0 59662 30600.00000 0 13425016.397 -4513637.424 21229065.009 10 0 59662 31500.00000 0 12305742.261 -2079384.077 22262930.284 10 0 59662 32400.00000 0 11331603.732 523880.192 22865171.960 10 0 59662 33300.00000 0 10535611.239 3235574.127 23024227.580 10 0 59662 34200.00000 0 9939758.263 5989886.704 22737106.189 10 0 59662 35100.00000 0 9554169.191 8718267.817 22009438.730 10 0 59662 36000.00000 0 9376761.081 11352036.854 20855364.968 10 0 59662 36900.00000 0 9393432.472 13825002.457 19297259.314 10 0 59662 37800.00000 0 9578770.604 16075986.453 17365300.713 10 0 59662 38700.00000 0 9897247.101 18051148.763 15096894.299 10 0 59662 39600.00000 0 10304851.976 19706018.026 12535955.284 10 0 59662 40500.00000 0 10751097.615 21007144.640 9732067.929 10 0 59662 41400.00000 0 11181308.945 21933308.233 6739534.793 10 0 59662 42300.00000 0 11539103.834 22476229.625 3616333.808 10 0 59662 43200.00000 0 11768959.620 22640757.841 423002.490 10 0 59662 44100.00000 0 11818757.636 22444524.292 -2778529.734 10 0 59662 45000.00000 0 11642198.242 21917078.414 -5926138.745 10 0 59662 45900.00000 0 11200983.860 21098540.749 -8958709.486 10 0 59662 46800.00000 0 10466676.930 20037829.650 -11817322.860 10 0 59662 47700.00000 0 9422153.098 18790535.849 -14446402.448 10 0 59662 48600.00000 0 8062586.691 17416533.976 -16794798.507 10 0 59662 49500.00000 0 6395925.036 15977431.315 -18816787.826 10 0 59662 50400.00000 0 4442829.615 14533961.071 -20472969.519 10 0 59662 51300.00000 0 2236084.369 13143429.827 -21731038.994 10 0 59662 52200.00000 0 -180506.165 11857326.639 -22566424.604 10 0 59662 53100.00000 0 -2753684.596 10719194.558 -22962774.130 10 0 59662 54000.00000 0 -5422710.439 9762854.266 -22912281.224 10 0 59662 54900.00000 0 -8121650.997 9011054.748 -22415844.930 10 0 59662 55800.00000 0 -10781898.615 8474607.923 -21483058.683 10 0 59662 56700.00000 0 -13334809.959 8152043.716 -20132028.473 10 0 59662 57600.00000 0 -15714357.484 8029799.980 -18389023.216 10 0 59662 58500.00000 0 -17859682.414 8082939.005 -16287963.780 10 0 59662 59400.00000 0 -19717442.488 8276359.869 -13869760.378 10 0 59662 60300.00000 0 -21243856.213 8566454.690 -11181511.194 10 0 59662 61200.00000 0 -22406357.936 8903137.835 -8275578.174 10 0 59662 62100.00000 0 -23184794.558 9232161.055 -5208558.508 10 0 59662 63000.00000 0 -23572114.163 9497615.294 -2040172.587 10 0 59662 63900.00000 0 -23574518.388 9644511.884 1167908.765 10 0 59662 64800.00000 0 -23211073.319 9621332.534 4353273.922 10 0 59662 65700.00000 0 -22512796.704 9382439.016 7453992.294 10 0 59662 66600.00000 0 -21521261.473 8890239.667 10409823.545 10 0 59662 67500.00000 0 -20286775.995 8117020.492 13163390.033 10 0 59662 68400.00000 0 -18866219.088 7046363.117 15661289.361 10 0 59662 69300.00000 0 -17320621.988 5674089.745 17855125.423 10 0 59662 70200.00000 0 -15712599.648 4008695.277 19702438.494 10 0 59662 71100.00000 0 -14103739.322 2071248.478 21167517.199 10 0 59662 72000.00000 0 -12552055.681 -105233.700 22222077.745 10 0 59662 72900.00000 0 -11109618.181 -2476912.729 22845798.621 10 0 59662 73800.00000 0 -9820448.685 -4990709.599 23026701.748 10 0 59662 74700.00000 0 -8718775.761 -7586275.197 22761373.910 10 0 59662 75600.00000 0 -7827716.919 -10198269.213 22055025.171 10 0 59662 76500.00000 0 -7158442.228 -12758854.154 20921383.742 10 0 59662 77400.00000 0 -6709852.821 -15200302.352 19382429.601 10 0 59662 78300.00000 0 -6468786.558 -17457609.296 17467971.820 10 0 59662 79200.00000 0 -6410741.413 -19471006.251 15215077.273 10 0 59662 80100.00000 0 -6501085.820 -21188269.022 12667360.967 10 0 59662 81000.00000 0 -6696705.064 -22566727.927 9874150.806 10 0 59662 81900.00000 0 -6948014.634 -23574896.055 6889541.841 10 0 59662 82800.00000 0 -7201256.121 -24193648.307 3771357.425 10 0 59662 83700.00000 0 -7400979.176 -24416902.114 580036.525 10 0 59662 84600.00000 0 -7492605.020 -24251771.244 -2622531.921 10 0 59662 85500.00000 0 -7424963.254 -23718185.846 -5774205.313 99